Weather History for Martinsville, VA

Change the Weather History Date:

Wednesday, April 17, 2013

  Actual Average (KGSO) Record (KGSO)
Temperature  
Mean Temperature 68 °F 59 °F  
Max Temperature 81 °F 71 °F 90 °F (1967)
Min Temperature 55 °F 48 °F 29 °F (1949)
Degree Days  
Heating Degree Days 0 7  
Month to date heating degree days 150  
Since 1 July heating degree days 3475  
Cooling Degree Days 3 1  
Month to date cooling degree days 16  
Year to date cooling degree days 21  
Growing Degree Days 18 (Base 50)    
Moisture  
Dew Point 58 °F    
Average Humidity 75    
Maximum Humidity 97    
Minimum Humidity 45    
Precipitation  
Precipitation 0.00 in 0.12 in 1.25 in (1910)
Month to date precipitation 2.04  
Year to date precipitation 11.79  
Snow  
Snow 0.00 in 0.00 in T in (2001)
Month to date snowfall 0.1  
Since 1 July snowfall 7.6  
Snow Depth -    
Sea Level Pressure  
Sea Level Pressure 30.20 in    
Wind  
Wind Speed 1 mph (SSE)    
Max Wind Speed 6 mph    
Max Gust Speed -    
Visibility 10 miles    
Events      
T = Trace of Precipitation, MM = Missing Value Source: NWS Daily Summary

Daily Weather History Graph

Daily Weather History Graph

Search for Another Location

Airport:

Trip Planner

Search our weather history database for the weather conditions in past years. The results will help you decide how hot, cold, wet, or windy it might be!

Date:

Astronomy

Apr. 17, 2013 Rise Set
Actual Time 6:43 AM EDT 7:56 PM EDT
Civil Twilight 6:16 AM EDT 8:23 PM EDT
Nautical Twilight 5:44 AM EDT 8:55 PM EDT
Astronomical Twilight 5:11 AM EDT 9:28 PM EDT
Moon 11:58 AM EDT (4/17) 1:29 AM EDT (4/17)
Length of Visible Light 14h 06m
Length of Day
13h 13m
Waxing Crescent, 42% of the Moon is Illuminated
Apr 17
Waxing Crescent
Apr 18
First Quarter
Apr 25
Full
May 2
Last Quarter
May 9
New

Hourly Weather History & Observations

Time (EDT) Temp. Heat Index Dew Point Humidity Pressure Visibility Wind Dir Wind Speed Gust Speed Precip Events Conditions
12:15 AM 62.6 °F - 57.9 °F 85% 30.25 in 10.0 mi Calm Calm - N/A   Clear
12:35 AM 60.4 °F - 57.6 °F 90% 30.25 in 10.0 mi Calm Calm - N/A   Clear
12:55 AM 59.2 °F - 56.8 °F 92% 30.25 in 10.0 mi Calm Calm - N/A   Clear
1:15 AM 58.1 °F - 56.7 °F 95% 30.25 in 10.0 mi Calm Calm - N/A   Clear
1:35 AM 57.7 °F - 56.5 °F 96% 30.24 in 10.0 mi Calm Calm - N/A   Clear
1:55 AM 57.4 °F - 56.1 °F 96% 30.24 in 10.0 mi Calm Calm - N/A   Clear
2:15 AM 57.6 °F - 56.5 °F 96% 30.23 in 10.0 mi Calm Calm - N/A   Scattered Clouds
2:35 AM 57.6 °F - 55.6 °F 93% 30.23 in 10.0 mi Calm Calm - N/A   Mostly Cloudy
2:55 AM 57.0 °F - 55.4 °F 94% 30.22 in 10.0 mi Calm Calm - N/A   Scattered Clouds
3:15 AM 56.1 °F - 55.0 °F 96% 30.22 in 10.0 mi Calm Calm - N/A   Scattered Clouds
3:35 AM 60.1 °F - 57.0 °F 90% 30.22 in 10.0 mi Calm Calm - N/A   Mostly Cloudy
3:55 AM 57.9 °F - 55.4 °F 91% 30.22 in 10.0 mi Calm Calm - N/A   Scattered Clouds
4:15 AM 55.6 °F - 54.5 °F 96% 30.22 in 10.0 mi Calm Calm - N/A   Clear
4:35 AM 55.9 °F - 54.5 °F 95% 30.21 in 10.0 mi Calm Calm - N/A   Clear
4:55 AM 56.5 °F - 54.9 °F 94% 30.21 in 10.0 mi Calm Calm - N/A   Clear
5:15 AM 55.6 °F - 54.1 °F 95% 30.22 in 7.0 mi Calm Calm - N/A   Clear
5:35 AM 56.3 °F - 55.4 °F 97% 30.23 in 10.0 mi Calm Calm - N/A   Clear
5:55 AM 56.3 °F - 54.9 °F 95% 30.23 in 10.0 mi South 3.5 mph - N/A   Clear
6:15 AM 60.4 °F - 57.2 °F 89% 30.23 in 10.0 mi SW 3.5 mph - N/A   Scattered Clouds
6:35 AM 62.6 °F - 57.6 °F 84% 30.22 in 10.0 mi Calm Calm - N/A   Scattered Clouds
6:55 AM 60.8 °F - 57.2 °F 88% 30.23 in 10.0 mi Calm Calm - N/A   Mostly Cloudy
7:15 AM 59.5 °F - 57.2 °F 92% 30.23 in 10.0 mi Calm Calm - N/A   Scattered Clouds
7:35 AM 59.5 °F - 57.2 °F 92% 30.22 in 10.0 mi Calm Calm - N/A   Clear
7:55 AM 60.1 °F - 57.9 °F 93% 30.22 in 10.0 mi Calm Calm - N/A   Clear
8:15 AM 63.5 °F - 58.5 °F 84% 30.21 in 10.0 mi Calm Calm - N/A   Clear
8:35 AM 64.8 °F - 59.2 °F 82% 30.21 in 10.0 mi Calm Calm - N/A   Clear
8:55 AM 66.7 °F - 60.4 °F 80% 30.20 in 10.0 mi ESE 3.5 mph - N/A   Scattered Clouds
9:15 AM 66.2 °F - 60.3 °F 81% 30.21 in 10.0 mi Calm Calm - N/A   Mostly Cloudy
9:35 AM 66.2 °F - 60.3 °F 81% 30.22 in 10.0 mi Calm Calm - N/A   Overcast
10:15 AM 66.2 °F - 61.5 °F 85% 30.24 in 10.0 mi Calm Calm - N/A   Overcast
10:35 AM 66.7 °F - 60.4 °F 80% 30.24 in 10.0 mi Calm Calm - N/A   Overcast
10:55 AM 69.4 °F - 61.5 °F 76% 30.24 in 10.0 mi Calm Calm - N/A   Mostly Cloudy
11:15 AM 71.6 °F - 60.3 °F 67% 30.23 in 10.0 mi Calm Calm - N/A   Overcast
11:35 AM 72.5 °F - 59.0 °F 62% 30.24 in 10.0 mi Calm Calm - N/A   Mostly Cloudy
11:55 AM 75.0 °F - 59.5 °F 58% 30.24 in 10.0 mi Calm Calm - N/A   Scattered Clouds
12:15 PM 76.6 °F - 59.4 °F 55% 30.23 in 10.0 mi Calm Calm - N/A   Mostly Cloudy
12:35 PM 77.0 °F - 59.7 °F 55% 30.22 in 10.0 mi East 3.5 mph - N/A   Scattered Clouds
12:55 PM 77.0 °F - 59.2 °F 54% 30.21 in 10.0 mi Calm Calm - N/A   Mostly Cloudy
1:15 PM 76.6 °F - 59.5 °F 55% 30.21 in 10.0 mi Calm Calm - N/A   Overcast
1:35 PM 76.6 °F - 61.3 °F 59% 30.21 in 10.0 mi SSE 3.5 mph - N/A   Overcast
1:55 PM 75.6 °F - 60.6 °F 60% 30.20 in 10.0 mi SSE 4.6 mph - N/A   Overcast
2:15 PM 75.4 °F - 61.3 °F 62% 30.20 in 10.0 mi SE 3.5 mph - N/A   Overcast
2:35 PM 74.8 °F - 62.1 °F 64% 30.20 in 10.0 mi Calm Calm - N/A   Overcast
2:55 PM 74.5 °F - 62.1 °F 65% 30.20 in 10.0 mi SSE 3.5 mph - N/A   Overcast
3:15 PM 74.8 °F - 61.7 °F 64% 30.18 in 10.0 mi SSE 5.8 mph - N/A   Overcast
3:35 PM 75.2 °F - 61.3 °F 62% 30.17 in 10.0 mi SE 4.6 mph - N/A   Overcast
3:55 PM 77.7 °F - 59.9 °F 54% 30.17 in 10.0 mi Calm Calm - N/A   Overcast
4:35 PM 80.2 °F 80.7 °F 58.5 °F 47% 30.16 in 10.0 mi Calm Calm - N/A   Clear
4:55 PM 80.8 °F 81.0 °F 57.7 °F 45% 30.16 in 10.0 mi Calm Calm - N/A   Clear
5:15 PM 81.0 °F 81.2 °F 58.1 °F 46% 30.16 in 10.0 mi SSE 4.6 mph - N/A   Clear
5:35 PM 80.8 °F 81.1 °F 58.3 °F 46% 30.15 in 10.0 mi SSE 4.6 mph - N/A   Clear
5:55 PM 80.1 °F 80.7 °F 58.6 °F 48% 30.16 in 10.0 mi South 3.5 mph - N/A   Clear
6:15 PM 77.2 °F - 56.8 °F 49% 30.16 in 10.0 mi Calm Calm - N/A   Clear
6:35 PM 77.0 °F - 57.6 °F 51% 30.16 in 10.0 mi Calm Calm - N/A   Mostly Cloudy
6:55 PM 75.9 °F - 59.5 °F 57% 30.16 in 10.0 mi SSE 3.5 mph - N/A   Overcast
7:15 PM 74.7 °F - 59.5 °F 59% 30.16 in 10.0 mi SE 3.5 mph - N/A   Overcast
7:35 PM 73.0 °F - 58.5 °F 60% 30.16 in 10.0 mi SE 3.5 mph - N/A   Overcast
7:55 PM 73.0 °F - 58.6 °F 61% 30.16 in 10.0 mi Calm Calm - N/A   Overcast
8:15 PM 71.6 °F - 58.6 °F 64% 30.17 in 10.0 mi Calm Calm - N/A   Mostly Cloudy
8:35 PM 70.5 °F - 59.4 °F 68% 30.17 in 10.0 mi Calm Calm - N/A   Overcast
8:55 PM 69.3 °F - 59.9 °F 72% 30.17 in 10.0 mi Calm Calm - N/A   Overcast
9:15 PM 69.8 °F - 58.8 °F 68% 30.17 in 10.0 mi Calm Calm - N/A   Overcast
9:35 PM 68.9 °F - 58.3 °F 69% 30.17 in 10.0 mi Calm Calm - N/A   Overcast
9:55 PM 65.5 °F - 60.3 °F 83% 30.18 in 10.0 mi Calm Calm - N/A   Mostly Cloudy
10:15 PM 64.8 °F - 58.5 °F 80% 30.19 in 10.0 mi Calm Calm - N/A   Clear
10:55 PM 62.2 °F - 58.1 °F 86% 30.19 in 10.0 mi NNW 3.5 mph - N/A   Clear
11:15 PM 61.0 °F - 58.1 °F 90% 30.18 in 10.0 mi Calm Calm - N/A   Clear
11:35 PM 60.8 °F - 58.1 °F 91% 30.17 in 10.0 mi Calm Calm - N/A   Clear
11:55 PM 60.1 °F - 58.1 °F 93% 30.17 in 10.0 mi Calm Calm - N/A   Clear